When you browse on this site, cookies collect data to enhance your experience and personalize the content and advertising you see.
Visit our Privacy Policy to learn more. By continuing to use the site, you agree to this use of cookies and data.
  • In Latvia
  • List of Countries
  • For 7 days
  • Water Temperature
  • Weather Map
  • Weather Widgets
  • user-avatar
    Login

    Hourly Weather Jelcz-Laskowice

    Today, 2 June, Tuesday

    Time Temperature Precipitation Wind Pressure Humidity
    00:00 +10°C° 0 mm 2 mps 753 mmHg 83%
    01:00 +10°C° 0 mm 2 mps 752 mmHg 82%
    02:00 +9°C° 0 mm 2 mps 752 mmHg 84%
    03:00 +9°C° 0 mm 3 mps 752 mmHg 86%
    04:00 +9°C° 0 mm 3 mps 752 mmHg 89%
    05:00 +10°C° 0 mm 3 mps 752 mmHg 86%
    06:00 +11°C° 0 mm 4 mps 752 mmHg 83%
    07:00 +12°C° 0 mm 4 mps 752 mmHg 80%
    08:00 +13°C° 0 mm 4 mps 751 mmHg 76%
    09:00 +14°C° 0 mm 5 mps 751 mmHg 73%
    10:00 +15°C° 0 mm 5 mps 751 mmHg 69%
    11:00 +16°C° 0.1 mm 5 mps 751 mmHg 68%
    12:00 +16°C° 0.1 mm 6 mps 750 mmHg 66%
    13:00 +17°C° 0.1 mm 6 mps 750 mmHg 65%
    14:00 +17°C° 0.2 mm 6 mps 750 mmHg 67%
    15:00 +17°C° 0.2 mm 5 mps 749 mmHg 69%
    16:00 +17°C° 0.2 mm 5 mps 748 mmHg 71%
    17:00 +17°C° 0.5 mm 4 mps 748 mmHg 76%
    18:00 +16°C° 0.5 mm 3 mps 747 mmHg 82%
    19:00 +16°C° 0.5 mm 2 mps 747 mmHg 87%
    20:00 +14°C° 0.5 mm 1 mps 747 mmHg 89%
    21:00 +13°C° 0.5 mm 1 mps 747 mmHg 91%
    22:00 +12°C° 0.5 mm 1 mps 747 mmHg 92%
    23:00 +12°C° 0.2 mm 1 mps 746 mmHg 93%

    Tomorrow, 3 June, Wednesday

    Time Temperature Precipitation Wind Pressure Humidity
    00:00 +12°C° 0.2 mm 2 mps 746 mmHg 94%
    01:00 +10°C° 0.2 mm 2 mps 746 mmHg 95%
    02:00 +10°C° 0 mm 2 mps 746 mmHg 96%
    03:00 +12°C° 0 mm 2 mps 745 mmHg 96%
    04:00 +12°C° 0 mm 2 mps 745 mmHg 96%
    05:00 +11°C° 0 mm 3 mps 745 mmHg 94%
    06:00 +12°C° 0 mm 3 mps 744 mmHg 91%
    07:00 +13°C° 0 mm 3 mps 744 mmHg 89%
    08:00 +14°C° 0 mm 3 mps 744 mmHg 81%
    09:00 +16°C° 0 mm 3 mps 744 mmHg 73%
    10:00 +17°C° 0 mm 3 mps 744 mmHg 66%
    11:00 +18°C° 0 mm 3 mps 743 mmHg 61%
    12:00 +18°C° 0 mm 3 mps 743 mmHg 57%
    13:00 +19°C° 0 mm 3 mps 743 mmHg 52%
    14:00 +19°C° 0 mm 2 mps 743 mmHg 52%
    15:00 +19°C° 0 mm 2 mps 742 mmHg 51%
    16:00 +19°C° 0 mm 2 mps 742 mmHg 51%
    17:00 +18°C° 0 mm 2 mps 742 mmHg 57%
    18:00 +17°C° 0 mm 2 mps 742 mmHg 64%
    19:00 +16°C° 0 mm 1 mps 741 mmHg 71%
    20:00 +14°C° 0 mm 2 mps 741 mmHg 73%
    21:00 +13°C° 0 mm 2 mps 742 mmHg 76%
    22:00 +10°C° 0 mm 2 mps 742 mmHg 78%
    23:00 +10°C° 0 mm 2 mps 741 mmHg 79%

    Day after tomorrow, 4 June, Thursday

    Time Temperature Precipitation Wind Pressure Humidity
    00:00 +9°C° 0 mm 2 mps 741 mmHg 80%
    01:00 +9°C° 0 mm 2 mps 741 mmHg 80%
    02:00 +8°C° 0 mm 2 mps 741 mmHg 81%
    03:00 +8°C° 0 mm 2 mps 740 mmHg 83%
    04:00 +8°C° 0 mm 2 mps 740 mmHg 84%
    05:00 +9°C° 0 mm 2 mps 740 mmHg 80%
    06:00 +12°C° 0 mm 2 mps 739 mmHg 77%
    07:00 +13°C° 0 mm 3 mps 739 mmHg 73%
    08:00 +14°C° 0 mm 3 mps 739 mmHg 70%
    09:00 +17°C° 0 mm 4 mps 739 mmHg 66%
    10:00 +19°C° 0 mm 4 mps 738 mmHg 63%
    11:00 +20°C° 0 mm 4 mps 738 mmHg 62%
    12:00 +20°C° 0 mm 4 mps 738 mmHg 62%
    13:00 +21°C° 0 mm 4 mps 737 mmHg 62%
    14:00 +21°C° 0.5 mm 4 mps 737 mmHg 66%
    15:00 +21°C° 0.5 mm 3 mps 736 mmHg 70%
    16:00 +21°C° 0.5 mm 2 mps 736 mmHg 74%
    17:00 +20°C° 0.1 mm 2 mps 735 mmHg 77%
    18:00 +19°C° 0.1 mm 2 mps 735 mmHg 80%
    19:00 +18°C° 0.1 mm 2 mps 735 mmHg 83%
    20:00 +17°C° 0.1 mm 3 mps 734 mmHg 86%
    21:00 +16°C° 0.1 mm 3 mps 734 mmHg 88%
    22:00 +14°C° 0.1 mm 3 mps 734 mmHg 90%
    23:00 +14°C° 0.1 mm 3 mps 733 mmHg 91%

    5 June, Friday

    Time Temperature Precipitation Wind Pressure Humidity
    00:00 +14°C° 0.1 mm 3 mps 733 mmHg 92%
    01:00 +13°C° 0.1 mm 3 mps 732 mmHg 93%
    02:00 +14°C° 0 mm 3 mps 732 mmHg 92%
    03:00 +14°C° 0 mm 3 mps 732 mmHg 92%
    04:00 +14°C° 0 mm 3 mps 732 mmHg 92%
    05:00 +14°C° 0.1 mm 3 mps 732 mmHg 91%
    06:00 +16°C° 0.1 mm 3 mps 732 mmHg 91%
    07:00 +16°C° 0.1 mm 3 mps 732 mmHg 90%
    08:00 +17°C° 0.2 mm 3 mps 733 mmHg 87%
    09:00 +17°C° 0.2 mm 4 mps 733 mmHg 84%
    10:00 +18°C° 0.2 mm 4 mps 734 mmHg 82%
    11:00 +15°C° 0.9 mm 5 mps 734 mmHg 86%
    12:00 +14°C° 0.9 mm 5 mps 734 mmHg 89%
    13:00 +11°C° 0.9 mm 6 mps 735 mmHg 93%
    14:00 +10°C° 0.6 mm 6 mps 735 mmHg 93%
    15:00 +10°C° 0.6 mm 6 mps 736 mmHg 93%
    16:00 +9°C° 0.6 mm 5 mps 736 mmHg 93%
    17:00 +10°C° 0.2 mm 4 mps 737 mmHg 94%
    18:00 +10°C° 0.2 mm 3 mps 737 mmHg 94%
    19:00 +10°C° 0.2 mm 2 mps 737 mmHg 95%
    20:00 +10°C° 0 mm 2 mps 738 mmHg 94%
    21:00 +10°C° 0 mm 2 mps 738 mmHg 93%
    22:00 +12°C° 0 mm 2 mps 739 mmHg 92%
    23:00 +10°C° 0 mm 2 mps 739 mmHg 91%

    6 June, Saturday

    Time Temperature Precipitation Wind Pressure Humidity
    00:00 +10°C° 0 mm 2 mps 739 mmHg 90%
    01:00 +10°C° 0 mm 3 mps 740 mmHg 88%
    02:00 +9°C° 0 mm 3 mps 740 mmHg 88%
    03:00 +9°C° 0 mm 2 mps 740 mmHg 88%
    04:00 +8°C° 0 mm 2 mps 741 mmHg 87%
    05:00 +10°C° 0 mm 3 mps 741 mmHg 84%
    06:00 +11°C° 0 mm 3 mps 742 mmHg 81%
    07:00 +13°C° 0 mm 3 mps 742 mmHg 78%
    08:00 +14°C° 0.1 mm 4 mps 742 mmHg 74%
    09:00 +15°C° 0.1 mm 4 mps 742 mmHg 69%
    10:00 +17°C° 0.1 mm 4 mps 743 mmHg 65%
    11:00 +17°C° 0.2 mm 4 mps 742 mmHg 62%
    12:00 +18°C° 0.2 mm 3 mps 742 mmHg 60%
    13:00 +19°C° 0.2 mm 3 mps 742 mmHg 57%
    14:00 +19°C° 0.2 mm 3 mps 742 mmHg 58%
    15:00 +19°C° 0.2 mm 3 mps 742 mmHg 58%
    16:00 +19°C° 0.2 mm 2 mps 742 mmHg 58%
    17:00 +18°C° 0.1 mm 2 mps 743 mmHg 64%
    18:00 +17°C° 0.1 mm 2 mps 743 mmHg 71%
    19:00 +16°C° 0.1 mm 2 mps 743 mmHg 78%
    20:00 +14°C° 0 mm 2 mps 743 mmHg 81%
    21:00 +12°C° 0 mm 3 mps 744 mmHg 83%
    22:00 +10°C° 0 mm 3 mps 744 mmHg 86%
    23:00 +10°C° 0 mm 3 mps 744 mmHg 88%

    7 June, Sunday

    Time Temperature Precipitation Wind Pressure Humidity
    00:00 +10°C° 0 mm 3 mps 744 mmHg 89%
    01:00 +10°C° 0 mm 3 mps 744 mmHg 90%
    02:00 +10°C° 0 mm 3 mps 744 mmHg 91%
    03:00 +9°C° 0 mm 3 mps 744 mmHg 91%
    04:00 +9°C° 0 mm 3 mps 744 mmHg 91%
    05:00 +11°C° 0 mm 3 mps 744 mmHg 87%
    06:00 +13°C° 0 mm 3 mps 744 mmHg 83%
    07:00 +16°C° 0 mm 3 mps 744 mmHg 79%
    08:00 +18°C° 0 mm 3 mps 744 mmHg 74%
    09:00 +19°C° 0 mm 3 mps 744 mmHg 69%
    10:00 +21°C° 0 mm 3 mps 744 mmHg 65%
    11:00 +21°C° 0.3 mm 3 mps 744 mmHg 65%
    12:00 +21°C° 0.3 mm 3 mps 744 mmHg 65%
    13:00 +22°C° 0.3 mm 3 mps 744 mmHg 65%
    14:00 +22°C° 0.7 mm 3 mps 744 mmHg 68%
    15:00 +21°C° 0.7 mm 3 mps 744 mmHg 71%
    16:00 +21°C° 0.7 mm 3 mps 744 mmHg 74%
    17:00 +20°C° 0.4 mm 2 mps 744 mmHg 79%
    18:00 +19°C° 0.4 mm 2 mps 745 mmHg 83%
    19:00 +18°C° 0.4 mm 2 mps 745 mmHg 88%
    20:00 +17°C° 0 mm 2 mps 745 mmHg 90%
    21:00 +16°C° 0 mm 1 mps 745 mmHg 93%
    22:00 +15°C° 0 mm 1 mps 746 mmHg 95%
    23:00 +15°C° 0 mm 2 mps 746 mmHg 95%
    Show more